Theta_e
352 357 357 354 355 358 357 358 338 333 334 319 322 327 331 341 340 343 344 343 345 345 343 344 347 346 347 346 348 350 351 351 350 344 343 353 354 354 356 353 355 355 355 355 353 352 353 355 357 358 357 357 357 357 356 355 356 356 356 354 354 354 354 354 353 351 351 351 351 351 351 349 345 346 345 346 347 347 347 347 347 347 348 347 347 347 346 345 346 346 346 346 346 346 345 344 344
356 356 355 353 356 357 355 355 331 323 326 318 325 332 335 342 340 342 342 343 345 344 345 346 346 346 346 346 347 347 350 351 351 351 351 354 355 356 356 354 354 354 355 355 354 353 354 356 356 357 356 356 356 357 356 356 356 356 356 355 355 354 354 354 354 352 351 350 351 350 349 348 346 347 347 346 347 348 347 346 348 348 349 348 347 347 347 346 344 344 343 345 347 347 346 345 345
356 353 356 355 357 356 356 349 327 317 318 319 327 338 340 340 341 343 342 343 346 344 347 347 347 348 345 348 349 349 350 349 349 350 351 353 355 356 355 355 354 354 354 354 355 355 355 355 355 356 356 356 356 357 356 355 356 356 355 355 355 355 354 354 354 353 352 350 350 349 347 346 346 347 348 347 346 349 349 349 351 350 349 349 348 348 349 347 344 343 345 347 349 349 349 347 347
355 354 357 357 359 356 351 339 329 319 316 319 324 337 343 343 346 345 345 346 346 346 347 347 348 348 346 349 349 349 350 349 349 349 350 353 354 355 356 355 354 353 353 354 354 355 355 353 354 354 355 355 355 357 355 355 355 355 356 356 356 355 355 354 354 354 353 350 350 349 347 345 345 347 349 348 346 347 350 352 351 351 351 351 351 351 351 349 349 348 348 348 348 350 350 348 347
355 356 355 356 359 350 343 334 333 324 317 323 325 338 346 345 350 347 348 347 346 346 346 347 348 348 348 350 348 349 349 348 350 350 352 353 354 356 356 355 354 354 353 354 354 354 354 353 355 354 354 354 355 356 355 356 355 354 355 356 355 355 355 355 354 354 352 351 349 347 347 347 346 347 349 349 348 349 350 351 351 353 353 353 352 352 352 352 352 351 350 349 348 349 350 348 346
354 356 355 357 357 349 341 327 325 326 328 333 332 341 347 346 350 348 349 347 347 345 344 346 345 347 349 350 348 349 349 347 349 351 353 353 355 356 356 356 355 355 354 354 354 355 354 353 355 356 355 354 355 356 356 356 355 354 354 355 355 355 355 354 354 352 351 350 348 346 347 348 348 346 347 348 348 349 349 350 351 352 352 352 353 352 352 351 351 350 350 350 349 349 348 348 348
353 355 356 356 353 347 336 322 322 328 334 339 339 344 347 346 348 347 349 347 347 345 344 345 344 346 348 348 348 350 350 349 350 351 353 353 355 356 355 355 356 356 355 355 354 354 353 353 355 356 355 354 355 356 356 355 355 355 355 355 355 354 354 353 351 350 350 350 348 347 347 348 349 348 347 348 347 347 349 351 350 351 350 351 352 352 352 351 350 349 348 348 347 347 347 347 348
353 356 354 349 342 339 332 325 329 334 338 341 342 345 345 346 347 346 348 346 346 344 345 345 343 347 347 347 349 351 351 350 351 352 354 354 354 355 355 355 355 356 355 355 355 354 353 353 356 355 355 354 354 355 356 355 355 355 355 355 355 354 353 352 351 351 351 351 350 349 349 349 349 349 348 349 349 350 351 352 351 351 350 350 350 350 351 350 349 348 347 348 347 348 349 347 346
354 354 351 343 336 331 327 327 332 339 342 341 342 344 345 345 345 346 345 344 343 343 345 345 343 348 350 350 349 350 351 351 351 352 355 354 355 354 354 354 354 355 355 356 355 354 354 354 356 356 355 354 353 355 356 355 355 355 354 354 354 354 353 353 353 352 353 351 350 350 349 348 348 348 348 349 350 352 352 352 352 350 348 348 347 345 345 344 344 345 344 346 347 349 350 350 348
354 349 345 338 332 324 319 325 332 339 342 341 343 343 344 343 343 343 343 343 343 346 347 345 344 346 348 349 349 349 351 351 351 352 354 354 355 354 354 353 354 354 354 355 355 355 354 353 354 355 356 354 354 354 354 353 353 354 353 354 354 354 353 354 353 353 352 350 350 349 348 348 347 347 347 348 348 349 349 349 348 346 345 344 342 340 340 340 341 342 341 342 344 346 348 350 351
354 343 341 333 324 318 316 323 331 340 343 342 343 342 343 341 341 342 343 345 345 348 347 345 346 346 349 350 349 349 351 351 351 351 352 354 355 354 354 353 354 354 354 355 355 355 354 352 352 353 354 353 354 354 353 353 353 354 353 354 353 353 353 352 352 351 350 350 349 349 348 346 345 345 344 344 344 344 343 344 342 341 341 339 339 339 339 341 342 341 341 342 342 344 345 347 348
349 337 339 329 321 321 322 325 331 341 343 342 343 343 343 340 341 342 345 346 346 347 345 346 348 346 350 350 349 349 351 350 350 350 351 352 353 354 353 353 353 353 353 354 355 356 355 353 352 352 352 352 354 354 354 353 353 353 353 353 352 351 351 350 350 349 349 349 348 347 345 344 343 342 341 340 340 340 339 339 339 339 339 338 338 338 341 345 343 341 341 342 344 346 346 346 346
347 337 335 327 327 329 328 329 334 341 341 343 343 343 344 342 342 342 344 346 347 346 344 346 345 346 349 350 349 348 349 350 350 350 351 351 353 354 352 352 353 354 354 354 355 356 356 355 354 353 351 350 352 353 353 353 353 352 352 352 351 350 349 349 349 349 349 348 346 344 343 343 342 339 338 338 338 338 339 339 340 339 339 339 339 338 341 343 340 340 342 342 344 346 347 347 347
346 339 334 329 331 333 330 330 332 332 334 342 343 343 345 343 343 342 345 348 349 346 345 346 345 348 349 350 349 345 347 349 349 350 351 351 352 353 352 352 352 354 355 355 356 356 357 356 356 354 351 352 352 352 352 351 352 352 352 351 351 350 349 349 349 349 348 347 345 343 343 342 341 339 338 338 338 340 339 339 339 339 343 342 339 341 342 342 341 342 342 341 343 344 345 347 348
346 339 334 331 328 329 330 330 331 328 332 343 344 344 346 344 345 344 346 348 349 346 347 350 347 347 347 350 349 346 348 349 349 350 350 351 351 353 352 352 352 354 355 355 356 356 357 356 357 356 354 354 354 354 353 351 350 351 351 350 351 350 349 349 348 348 348 347 345 344 343 341 340 339 339 339 340 340 339 341 339 340 346 342 339 343 343 343 344 344 343 342 343 342 344 345 347
345 339 334 329 323 323 327 332 332 329 334 343 344 345 347 346 347 346 347 348 348 348 349 350 347 347 346 348 349 348 349 348 348 348 350 351 351 352 352 353 352 354 354 354 355 355 357 356 357 357 356 356 355 356 355 353 350 350 350 350 351 350 349 349 348 348 348 347 346 344 343 343 344 343 343 343 344 342 340 345 345 344 346 341 341 345 344 344 345 345 344 344 344 343 344 345 346
342 340 333 324 322 323 327 334 331 329 336 343 344 345 347 348 349 348 347 346 349 351 351 351 348 347 347 348 349 349 349 348 349 349 350 351 350 351 351 352 352 353 354 354 355 355 357 357 356 356 357 356 356 356 356 356 352 350 352 350 351 350 349 350 349 348 348 349 348 347 345 347 352 352 350 349 349 347 342 343 344 345 346 341 343 345 344 345 345 346 346 345 345 344 344 344 346
340 338 330 322 325 328 329 335 333 333 339 342 343 344 347 349 350 349 348 348 351 354 353 353 352 352 351 351 350 349 348 348 349 349 350 350 348 348 350 351 351 352 352 353 355 356 358 356 355 355 356 355 356 356 356 358 354 352 355 353 351 351 350 350 351 351 351 351 351 351 351 351 355 356 355 353 352 352 349 346 345 346 348 345 344 345 345 345 345 345 346 346 346 344 343 345 348
337 334 328 325 330 332 333 336 335 337 340 342 343 342 345 348 348 348 350 350 352 356 356 354 353 353 352 351 351 349 349 349 350 349 349 350 348 347 348 350 351 351 351 352 353 355 356 355 354 355 356 354 354 355 355 357 355 354 357 356 354 354 353 352 354 354 354 354 353 353 354 354 355 356 357 354 352 352 352 349 346 345 348 348 345 345 346 345 346 345 345 346 346 345 344 345 348
334 331 329 328 333 334 337 338 338 340 340 343 342 342 345 345 346 345 347 349 350 355 356 355 354 353 349 349 351 350 350 351 350 349 349 349 349 348 348 349 350 351 351 350 352 354 354 355 354 356 357 354 353 356 355 355 356 356 357 357 356 356 355 355 355 356 356 355 355 355 355 355 356 356 356 352 350 351 351 349 347 345 346 348 347 347 348 346 346 346 346 346 347 349 348 348 349
330 331 331 332 334 336 341 341 341 341 340 343 342 344 345 344 344 344 345 346 348 353 354 354 354 352 349 348 350 351 351 352 351 350 350 350 351 350 350 349 349 350 351 350 352 354 354 354 354 355 358 356 355 357 356 355 356 357 356 357 357 356 356 355 355 355 357 356 355 356 355 355 356 355 356 354 352 352 353 352 352 350 350 352 351 350 351 350 348 349 350 349 350 351 350 349 349
329 332 333 335 336 339 343 342 342 341 340 341 341 343 344 345 346 345 345 346 349 351 353 353 351 350 349 348 351 352 353 352 351 350 351 352 351 350 351 350 350 350 351 351 352 353 354 354 354 355 357 358 357 357 357 356 357 357 355 356 356 357 356 356 356 355 356 356 355 355 354 355 355 355 355 355 355 354 354 354 353 352 351 352 353 353 354 353 351 351 351 351 351 351 349 349 349
330 334 336 337 338 341 342 341 342 340 339 340 341 342 343 346 347 348 349 350 351 351 352 352 351 351 351 351 352 351 352 353 352 351 350 351 351 350 349 349 350 350 350 351 351 353 354 354 354 354 356 358 358 357 357 356 356 356 355 356 356 356 356 356 356 354 355 357 356 355 355 354 355 354 354 355 355 354 353 353 352 352 351 350 350 351 352 353 352 351 351 351 351 351 350 349 349
330 336 339 340 340 342 342 342 342 340 340 341 341 342 343 347 348 350 352 353 352 352 352 353 353 354 353 352 351 351 352 354 353 352 350 349 350 349 349 348 349 350 350 351 351 353 354 354 354 355 356 358 358 357 357 356 356 356 355 356 356 356 356 356 356 354 353 356 356 356 355 354 354 353 353 354 354 354 353 353 351 350 350 350 349 349 350 351 352 352 352 351 351 351 350 349 348
334 338 341 342 342 342 342 342 340 339 340 340 342 344 346 347 349 351 353 353 352 351 352 352 353 352 352 350 350 352 354 354 353 352 352 350 350 350 349 349 349 350 350 351 351 352 354 354 355 356 357 358 358 358 356 356 355 356 356 356 356 356 356 356 356 355 353 354 355 356 356 354 353 353 353 353 353 353 353 353 352 350 349 349 349 349 349 349 350 352 352 352 351 350 349 348 347
336 340 341 343 342 342 343 342 340 340 340 341 343 345 347 347 348 351 353 352 352 351 351 351 351 350 350 350 350 354 354 354 354 353 353 351 350 350 350 349 349 350 350 351 351 352 353 354 355 356 357 358 358 358 357 355 354 354 356 356 357 357 356 356 356 355 353 352 353 355 355 354 354 353 353 353 353 353 352 352 352 351 349 348 348 348 348 349 350 350 351 352 351 350 348 347 347
339 341 342 343 342 343 343 341 340 341 341 342 343 343 345 344 345 350 351 351 352 352 352 351 351 351 350 349 351 355 355 354 354 354 354 353 352 351 351 350 349 350 350 350 351 351 353 353 354 355 356 357 356 357 356 355 354 354 355 356 357 358 357 357 356 355 353 352 353 355 355 353 353 353 353 353 354 353 351 351 351 350 349 348 348 348 347 348 349 350 352 352 351 351 349 347 347
342 342 344 345 343 344 344 342 342 342 342 341 342 342 343 342 344 350 350 350 350 351 354 353 352 353 352 351 352 356 357 355 356 355 355 354 354 352 351 352 351 350 351 351 352 352 353 353 353 353 354 356 355 355 355 354 354 353 353 354 354 355 357 357 356 354 353 352 353 355 354 352 352 353 354 354 353 353 351 350 350 349 349 349 348 349 349 348 348 350 353 354 352 351 350 348 348
341 342 343 345 346 344 342 342 342 343 344 341 342 339 339 344 345 350 351 349 348 349 352 353 353 355 354 354 353 356 358 357 357 356 356 355 354 354 353 353 353 353 352 352 353 353 353 353 353 354 354 355 355 354 354 354 353 353 352 352 351 351 353 354 354 353 352 352 353 354 352 349 349 352 352 351 352 353 353 352 351 349 349 348 349 350 351 350 348 348 351 353 353 352 351 350 349
339 339 341 342 340 341 341 342 343 345 344 345 343 330 333 348 348 349 350 349 349 348 350 351 352 355 355 355 354 356 359 358 358 357 356 357 356 356 355 355 355 355 354 354 355 354 353 353 353 354 354 354 355 354 354 354 354 353 352 352 352 351 350 351 352 352 352 352 354 354 352 349 348 350 349 348 350 351 351 351 351 350 350 349 349 351 352 351 349 348 348 350 352 352 351 350 350
338 336 337 338 329 331 343 342 343 345 343 349 344 325 330 351 349 349 350 348 348 347 348 349 349 353 353 355 354 354 358 359 359 358 358 358 357 357 357 358 358 358 358 357 357 356 354 355 355 355 355 354 354 355 355 355 354 353 353 352 352 352 351 350 350 351 351 352 353 354 354 351 348 349 349 350 350 351 351 351 350 350 351 351 351 352 353 352 350 348 348 348 348 350 351 351 350
338 328 324 331 325 329 345 342 342 344 341 347 341 326 333 351 348 349 349 347 348 345 346 347 348 350 351 354 354 352 355 358 359 358 358 358 358 358 359 361 361 361 361 361 360 359 357 356 356 356 355 355 355 355 355 355 355 354 354 354 353 353 353 352 351 351 351 352 353 354 355 353 348 347 350 352 352 353 353 352 351 350 352 353 354 354 353 353 351 348 348 347 346 346 347 350 351
334 326 317 323 324 327 339 341 342 343 341 343 339 331 338 350 349 348 348 348 348 345 344 346 347 348 351 351 352 352 354 356 358 358 358 359 359 360 361 362 363 363 362 362 362 361 360 358 358 357 356 356 356 355 356 355 355 354 354 354 354 354 353 353 352 352 352 353 354 355 356 355 351 349 351 353 353 353 354 353 353 352 352 352 354 356 354 353 352 350 348 347 347 345 343 345 348
324 326 320 322 326 325 329 337 342 343 343 342 339 338 341 347 350 349 347 348 348 345 344 345 346 348 350 351 350 352 353 353 356 358 359 360 361 362 362 362 362 363 361 361 362 362 362 360 359 358 357 356 356 355 355 355 355 354 354 354 354 354 355 354 354 354 354 354 355 355 357 357 355 354 352 353 354 353 353 352 353 354 352 351 352 354 355 353 352 351 349 347 347 347 345 343 343
318 319 319 320 325 326 326 333 340 342 343 342 339 341 345 348 351 349 346 347 348 348 346 344 346 347 350 351 350 351 351 352 354 357 359 359 361 362 361 361 361 361 361 360 361 362 362 361 360 358 358 357 357 357 356 356 356 355 356 356 357 357 357 357 357 357 356 356 356 356 357 357 357 355 352 351 353 353 352 351 353 354 354 353 352 353 355 354 352 351 351 349 348 349 348 345 342
323 322 322 320 320 324 329 335 339 343 343 341 340 341 346 349 350 351 347 346 348 348 348 346 346 347 348 350 350 351 351 351 354 357 357 359 359 360 360 360 360 361 361 361 362 362 362 362 361 359 359 358 358 358 358 357 357 357 358 358 357 357 356 356 356 357 357 357 357 356 356 356 356 356 353 351 348 348 350 351 352 353 353 352 352 353 353 354 354 352 352 350 349 349 349 348 346
329 326 324 322 320 322 331 339 340 343 339 338 343 343 347 350 349 352 349 347 349 349 350 350 348 347 348 349 349 351 352 351 357 359 358 359 359 360 360 360 360 361 362 362 362 363 363 362 362 361 359 359 359 359 359 358 359 359 359 358 356 355 354 354 354 354 354 354 354 355 355 354 353 353 353 352 349 346 346 348 349 350 351 351 351 352 352 354 355 354 353 352 350 349 348 349 348
328 325 321 320 321 323 332 341 341 343 337 337 348 346 347 352 349 350 351 349 347 346 350 351 350 349 348 350 350 351 352 354 359 360 359 359 357 359 360 360 360 362 363 363 363 363 364 362 360 360 359 359 358 359 360 359 359 359 357 357 355 353 353 353 352 351 351 351 351 352 352 351 350 350 350 351 351 350 348 348 349 349 349 351 353 353 352 354 355 354 354 352 352 351 348 348 350
327 325 321 316 321 327 334 341 343 344 336 338 349 345 346 355 352 352 352 349 347 345 347 350 351 352 351 351 352 353 356 358 358 359 359 358 357 358 359 360 360 361 362 362 362 363 362 360 358 358 357 357 359 359 359 358 357 356 355 354 353 352 351 351 351 350 350 349 349 350 350 350 349 350 350 350 351 352 351 350 351 350 350 351 353 354 353 354 354 354 353 352 352 351 349 350 351
326 324 318 314 322 325 323 333 343 344 337 341 350 345 348 359 357 357 353 349 352 351 350 351 352 355 354 352 352 355 358 360 359 356 357 358 358 359 359 360 360 360 361 361 360 360 359 358 357 357 356 356 358 357 356 355 354 353 352 351 351 351 350 349 350 348 347 347 347 346 346 347 348 348 349 349 349 349 349 349 349 350 351 352 352 352 352 353 353 353 352 351 351 349 348 349 350
324 326 320 317 324 324 321 333 343 342 340 347 347 335 339 355 357 357 355 353 356 355 353 355 354 355 356 355 356 357 357 359 359 357 357 359 360 360 360 360 360 359 359 358 358 358 357 357 357 356 356 355 355 355 353 353 352 351 351 350 349 350 349 348 348 345 343 342 341 341 342 345 347 347 347 347 347 347 347 348 348 350 350 351 352 351 350 350 350 350 350 349 349 349 348 347 349
319 325 326 322 327 326 327 339 338 328 327 341 342 323 324 343 352 352 353 355 356 355 355 355 357 357 357 357 357 357 357 357 359 358 358 360 360 361 362 361 359 357 357 357 357 357 356 356 355 355 353 352 352 351 349 349 349 348 348 348 346 347 345 344 344 341 340 340 340 341 343 345 345 345 345 345 345 346 346 346 347 347 348 349 350 350 349 348 347 347 347 347 347 348 349 347 348
314 323 328 327 329 327 332 337 328 316 318 337 342 322 317 329 343 351 352 354 355 356 357 354 356 359 356 355 354 356 357 356 358 359 358 359 360 361 362 361 359 357 357 357 356 356 355 353 353 351 349 349 349 347 346 347 347 346 345 344 341 341 340 340 341 341 341 342 342 342 343 344 344 343 343 343 344 344 344 344 345 345 345 346 348 349 349 348 347 346 345 346 347 347 348 344 344
316 327 330 328 329 330 335 334 322 318 325 338 342 330 319 317 331 350 354 355 357 357 359 356 354 357 356 353 353 355 356 355 357 357 357 359 360 360 360 360 359 357 358 357 355 354 351 349 350 349 347 348 348 346 345 346 344 343 342 341 340 340 340 340 341 341 342 342 342 342 342 342 342 342 342 342 342 343 343 344 344 345 345 346 346 347 348 348 347 347 346 346 347 348 347 342 340
323 333 332 330 333 334 336 330 321 325 327 323 329 333 321 315 328 351 354 353 356 357 358 357 355 356 356 354 352 354 356 356 355 355 356 358 360 359 359 360 359 357 356 353 351 350 349 349 349 348 346 346 346 345 344 342 341 341 341 341 341 341 341 340 340 340 341 341 340 340 341 341 341 341 341 341 341 342 343 343 344 345 345 345 346 346 346 347 347 346 346 346 346 346 345 344 342
331 336 336 336 337 336 336 330 322 324 322 315 320 326 319 314 323 340 346 346 351 356 356 356 355 356 357 355 353 354 356 357 355 354 357 358 358 358 359 360 357 353 351 350 348 348 348 348 348 347 345 344 344 343 343 343 341 341 342 342 341 341 342 341 341 341 341 340 340 340 340 340 340 340 340 341 341 341 342 343 344 344 344 345 346 346 345 346 346 345 346 345 343 343 344 344 343
334 336 336 334 336 337 335 330 324 320 317 315 317 322 320 314 316 328 341 346 348 350 352 353 355 355 357 356 353 354 355 357 356 354 356 358 357 358 358 356 353 350 349 348 347 346 346 347 347 346 344 343 344 344 344 344 343 343 342 341 341 341 342 342 341 341 341 341 340 340 340 340 340 340 340 340 340 340 341 342 342 343 343 344 344 345 344 344 344 344 345 345 343 343 344 344 343
333 335 332 325 325 327 324 323 322 317 314 316 319 323 321 314 315 325 340 347 345 344 345 351 354 354 357 357 353 353 354 356 356 354 356 358 357 357 355 352 349 349 349 347 346 345 346 347 347 345 342 342 344 344 344 344 343 343 342 341 341 341 340 340 340 340 340 340 339 339 339 338 339 340 340 340 339 339 340 341 341 342 342 343 343 343 343 342 343 343 343 344 344 344 344 344 343
331 330 324 316 315 317 316 315 316 314 314 318 322 323 319 316 322 330 336 341 345 344 342 346 352 354 357 358 355 353 354 355 355 354 354 356 356 354 351 350 349 349 348 347 346 345 346 346 345 343 342 344 344 342 342 342 341 341 340 339 339 340 340 340 340 339 340 340 339 338 338 338 338 339 339 339 338 338 339 340 341 341 342 342 342 343 342 342 343 343 343 343 342 343 344 343 343
325 322 316 312 313 314 314 314 314 313 314 318 323 323 317 316 324 336 339 340 344 345 343 344 348 353 357 358 355 352 353 353 355 355 354 355 356 351 348 349 350 349 349 348 347 346 346 346 344 344 344 344 343 341 340 340 340 340 339 339 339 339 339 339 339 339 339 339 339 339 339 338 338 338 338 338 337 338 338 339 341 341 342 342 343 342 341 342 342 342 342 342 341 341 343 344 343
325 326 322 314 312 313 312 313 312 312 314 318 323 321 313 313 327 344 345 343 345 345 346 348 349 352 355 357 355 351 352 353 354 355 353 355 355 349 346 348 349 349 349 349 349 348 347 345 343 344 345 344 341 340 339 339 340 340 339 338 338 338 337 337 338 339 339 339 338 338 338 338 337 337 337 337 337 337 337 339 340 340 341 341 341 341 340 340 341 340 340 341 341 341 342 343 343
324 329 323 315 316 316 313 313 313 312 312 316 319 317 317 324 338 347 344 343 345 345 346 350 351 352 353 356 356 353 353 353 353 354 353 355 352 347 346 348 347 348 349 349 350 349 346 344 343 344 344 343 341 340 340 339 339 339 338 337 337 337 337 337 337 338 338 338 338 338 338 338 337 337 337 337 337 337 337 338 338 339 340 340 339 340 339 338 338 338 339 339 340 339 340 342 343
323 323 317 320 327 323 313 312 315 313 311 314 316 315 319 325 331 339 342 343 345 346 346 346 349 352 354 357 357 353 353 353 353 354 354 354 351 347 347 346 345 347 348 349 351 349 346 345 344 344 344 342 340 340 340 340 339 339 339 338 336 336 336 335 335 336 336 336 337 337 337 337 337 336 336 336 336 337 337 337 337 338 339 339 338 338 338 337 337 337 338 338 338 338 338 339 340
323 317 319 326 327 324 319 313 314 314 311 313 315 314 314 315 321 336 344 339 338 345 346 345 347 351 355 356 357 355 354 353 354 355 355 355 350 346 345 344 345 346 347 349 350 347 346 345 344 344 343 342 341 341 341 341 340 339 339 338 337 337 336 335 335 335 335 336 336 337 336 336 336 336 336 336 336 336 336 337 337 338 338 338 339 338 338 338 338 337 337 338 338 337 337 338 338
325 321 326 325 316 316 318 314 314 314 312 313 313 313 312 311 317 329 336 335 334 343 350 348 345 350 354 355 357 357 355 354 354 354 355 355 350 345 344 343 344 346 347 348 348 346 345 345 344 342 342 342 342 342 342 341 341 339 339 338 337 337 336 335 335 335 335 336 336 336 336 336 335 335 335 336 336 336 336 336 337 337 336 336 337 337 337 338 337 337 336 336 336 337 337 337 337
326 326 329 326 319 317 317 316 314 313 312 312 313 313 312 315 323 327 331 334 334 341 352 352 345 348 353 355 356 357 356 354 354 354 354 354 350 345 343 343 344 346 348 346 344 344 343 343 343 342 341 343 343 342 342 342 341 341 339 339 337 337 336 336 336 336 335 335 335 335 335 335 335 335 335 336 336 336 336 337 336 336 335 335 336 336 336 336 336 336 336 335 335 335 336 335 335
322 320 320 320 321 321 320 318 315 313 312 312 313 312 311 321 333 332 331 335 335 342 351 351 348 348 352 355 356 356 356 354 353 353 353 353 349 344 342 343 344 346 346 342 340 341 339 340 342 342 341 343 343 343 342 342 341 341 340 338 337 337 336 336 335 335 335 335 335 335 335 335 335 335 335 336 336 336 337 337 336 336 336 336 336 337 336 336 336 336 335 335 335 335 335 334 334
324 321 319 319 320 318 315 316 315 315 313 312 314 312 312 327 341 334 333 337 337 342 347 348 350 350 352 355 355 356 357 354 353 352 350 352 349 344 342 343 344 345 343 339 338 338 337 338 340 339 340 341 340 341 343 342 341 340 339 338 336 336 335 335 335 335 334 334 334 334 334 335 334 334 335 336 336 336 337 338 337 337 337 337 336 337 336 336 336 336 336 335 334 334 334 334 333
Wind_Speed
1 1 3 4 5 6 5 5 2 6 6 10 11 10 10 11 12 12 11 11 9 8 8 9 9 6 6 8 10 10 11 9 6 4 7 11 17 17 15 16 16 16 14 12 12 14 15 15 14 13 15 17 18 19 20 21 21 21 21 22 22 22 21 21 20 20 19 19 18 17 17 17 17 16 16 16 15 15 14 14 13 12 12 11 11 10 10 9 8 8 8 8 9 9 9 9 9
2 2 4 5 6 6 2 3 4 9 8 11 11 9 10 11 13 12 12 12 10 9 10 9 9 9 9 9 7 8 11 11 9 9 11 19 20 17 17 16 16 15 14 12 11 13 13 13 13 14 15 17 18 18 19 20 20 21 21 21 20 21 21 20 19 18 18 18 17 16 15 15 15 15 15 15 15 14 14 14 13 12 12 12 11 10 9 8 8 8 8 8 9 9 9 9 8
3 3 3 5 5 5 2 1 6 10 10 11 9 9 10 12 13 13 14 14 13 12 10 10 10 7 7 10 8 7 9 9 13 13 12 18 17 15 18 17 17 16 13 12 11 12 11 13 14 14 15 17 18 18 18 19 20 20 20 20 20 19 19 19 18 17 17 17 16 15 15 15 14 14 13 14 14 14 13 13 13 12 12 12 11 10 9 9 9 8 8 8 8 8 8 8 7
3 4 4 6 4 3 1 5 7 8 11 10 8 10 11 12 13 13 14 14 12 11 9 10 9 6 9 13 10 10 11 9 12 12 10 15 16 17 19 18 18 15 14 12 11 12 12 13 15 15 16 17 18 17 17 18 18 19 20 19 19 18 18 18 17 16 16 16 16 15 15 14 14 13 13 13 13 13 13 12 12 12 12 12 11 11 10 10 9 9 8 8 8 7 7 6 5
4 4 4 6 2 1 2 6 7 8 11 9 8 11 11 11 12 12 12 12 10 9 8 8 8 8 11 11 5 8 10 9 11 12 13 16 19 19 19 19 18 15 14 12 12 13 14 16 16 16 17 17 17 17 18 17 18 19 19 19 18 17 17 16 16 16 15 15 15 15 15 14 14 13 13 13 13 12 12 12 12 11 11 11 11 11 10 10 9 9 8 7 7 6 6 5 4
4 4 5 6 3 1 2 7 9 9 10 10 10 10 11 11 11 12 11 10 9 8 8 8 10 11 10 10 9 8 6 8 10 11 14 18 19 19 19 18 17 17 15 13 12 12 14 17 16 16 18 18 16 17 18 17 18 19 19 19 18 17 16 16 15 15 15 14 14 14 14 13 13 13 13 13 13 12 12 12 11 11 11 11 10 10 10 9 8 8 7 6 6 5 5 4 3
3 3 4 4 2 1 5 10 10 9 9 11 11 10 12 11 11 11 11 10 9 8 8 9 11 12 9 7 9 9 7 9 10 11 15 19 18 19 18 17 18 18 16 14 13 12 15 17 16 16 18 19 17 17 18 18 18 19 18 18 17 16 15 15 15 15 14 13 13 13 13 12 12 12 12 12 12 12 12 11 11 10 10 10 9 9 9 8 7 7 6 5 4 4 4 3 3
5 3 2 1 2 4 8 10 10 9 9 11 11 12 12 11 10 10 10 9 8 9 9 10 10 11 10 7 8 8 9 10 12 16 19 19 18 18 16 17 18 17 16 15 15 15 17 18 16 16 18 18 17 18 18 18 18 18 18 17 17 16 15 15 14 14 13 12 12 12 12 12 11 11 11 11 11 11 11 11 10 10 9 9 8 8 7 7 6 5 4 4 4 4 3 3 3
6 3 2 1 4 7 8 10 10 9 10 12 11 12 11 9 8 8 10 9 10 10 9 7 5 9 12 11 10 8 9 12 16 19 19 19 18 17 16 16 16 17 17 16 16 16 17 19 17 16 17 18 18 18 17 18 18 18 17 17 16 15 15 14 14 13 13 12 12 12 11 11 10 10 10 10 10 9 9 9 9 9 8 7 6 5 5 4 4 3 2 2 2 3 3 3 4
4 2 1 1 4 7 8 9 9 9 11 11 11 11 10 8 8 9 10 11 10 8 8 7 6 11 14 13 10 8 11 15 18 19 18 19 18 16 15 15 16 17 17 16 16 15 16 17 18 17 16 17 17 17 17 18 18 17 17 16 16 15 14 14 13 13 12 12 12 12 11 10 10 9 9 9 9 9 8 8 8 7 6 6 5 4 3 3 2 2 2 2 2 1 0 2 3
2 2 1 1 5 6 8 9 9 9 11 11 11 10 8 9 10 10 11 11 9 9 10 9 11 14 14 12 8 9 15 17 18 19 18 18 17 16 16 16 16 16 17 17 16 15 16 16 17 17 16 17 16 15 16 16 16 15 16 16 15 14 14 13 13 12 12 12 11 11 10 10 9 9 9 8 8 8 8 8 7 6 5 4 3 3 3 3 2 2 3 3 3 3 2 2 2
1 3 2 2 5 6 8 9 10 9 10 10 10 8 7 9 10 11 11 11 11 12 11 9 10 11 11 10 7 12 17 16 16 18 18 16 16 15 15 16 16 16 17 16 16 16 16 16 16 16 16 16 15 15 15 15 15 14 15 15 14 14 14 13 12 12 12 11 11 11 10 10 9 9 8 8 7 7 7 6 6 5 4 4 3 2 2 1 2 3 3 4 3 3 2 2 3
2 1 1 4 4 4 8 9 10 9 8 8 9 9 7 7 10 12 12 11 9 9 10 10 11 10 10 10 9 12 16 17 17 17 17 16 15 15 14 15 16 16 16 16 15 15 16 15 15 15 16 16 15 15 15 15 15 14 14 14 14 13 13 12 12 12 11 11 11 10 10 9 9 9 8 8 7 6 6 5 5 5 4 4 2 2 1 3 5 5 5 5 5 4 3 3 4
2 1 1 4 3 3 8 7 8 8 7 8 9 9 7 6 9 10 10 10 8 10 12 11 10 10 10 9 9 10 14 18 18 17 16 15 15 15 14 15 15 15 15 15 14 14 14 14 14 15 15 14 14 14 14 14 15 14 14 13 13 12 12 12 12 11 11 11 11 10 10 9 9 8 8 7 6 6 5 5 6 5 4 3 4 4 4 6 6 6 7 6 6 6 5 5 5
3 2 1 4 5 5 5 5 7 7 8 9 9 9 8 8 8 7 8 9 11 11 10 8 6 6 11 11 9 12 17 21 20 17 16 15 14 15 15 15 14 14 13 14 14 14 13 13 13 14 14 14 13 13 13 13 14 13 13 13 12 12 12 12 12 11 11 11 10 10 10 9 9 8 7 6 6 6 5 5 5 4 4 5 5 5 6 7 7 7 8 7 7 7 7 7 6
2 3 2 3 5 6 4 3 4 7 8 10 10 10 11 9 7 7 8 10 12 9 4 5 3 3 11 12 12 18 22 22 20 18 17 16 14 14 15 14 14 13 12 13 14 14 13 12 13 13 13 13 13 12 12 12 12 12 12 11 11 11 11 11 11 11 11 10 10 10 10 9 8 8 7 6 6 6 6 6 6 4 5 7 6 6 8 8 8 8 8 8 7 7 9 9 7
2 4 3 4 4 6 6 3 3 7 9 11 12 10 11 10 8 8 9 12 12 8 4 5 3 4 10 14 20 23 23 22 21 19 18 16 15 15 14 14 14 13 12 13 12 13 13 12 13 13 13 13 12 11 10 10 10 11 10 10 10 10 10 10 10 10 10 10 10 10 10 9 7 7 7 7 7 7 7 8 8 6 6 8 7 7 8 9 10 10 9 9 9 8 8 9 8
3 4 2 4 5 7 6 5 5 7 11 12 11 9 10 10 10 9 9 11 10 9 9 9 10 11 15 21 26 25 23 23 21 21 19 17 16 16 14 14 14 14 13 13 12 11 12 13 13 12 12 12 12 10 10 9 9 11 9 10 10 10 11 10 10 10 10 10 10 10 9 8 8 7 7 7 7 7 9 10 10 7 8 9 8 8 8 10 11 11 10 10 10 9 7 6 7
4 2 3 4 7 8 5 7 6 6 12 12 10 9 9 10 9 7 6 9 9 9 10 12 15 15 19 24 26 25 24 22 21 21 20 17 17 17 16 14 13 13 14 14 13 12 12 12 13 12 12 12 11 10 10 9 10 11 10 10 10 10 11 11 11 10 10 10 10 10 9 8 8 7 7 8 8 8 10 12 12 9 9 10 10 9 9 10 11 11 10 10 10 9 6 5 5
3 3 3 7 8 8 6 6 7 8 13 13 10 9 9 8 5 4 5 8 8 9 10 12 16 18 19 21 23 24 22 21 20 20 19 17 16 16 16 16 15 13 13 13 13 13 12 12 12 12 11 12 11 9 9 9 10 10 9 10 10 10 10 10 11 10 10 10 10 10 9 9 8 8 8 9 10 9 10 12 13 11 10 11 12 10 10 11 11 10 10 9 9 8 6 5 6
1 2 5 9 6 7 8 7 8 10 12 12 11 10 10 8 5 3 5 6 7 8 8 11 17 20 20 20 21 22 21 21 20 19 18 17 16 15 14 14 14 13 13 12 13 13 13 12 12 11 11 11 10 9 9 9 9 9 9 9 9 9 10 10 11 11 11 11 11 10 9 9 9 8 8 8 9 9 9 10 11 10 9 10 11 9 8 10 11 10 9 9 9 8 7 7 7
1 5 8 8 5 8 8 8 10 10 12 11 10 10 9 9 8 7 5 5 6 7 9 13 17 20 20 20 19 20 20 20 19 18 18 16 16 15 14 14 13 13 13 12 13 13 13 12 12 12 12 11 10 9 8 8 8 8 8 9 9 9 10 10 11 11 11 11 11 10 9 9 9 9 8 8 8 8 9 10 10 10 9 8 9 8 8 9 10 10 9 9 9 9 8 8 7
1 6 7 6 7 10 9 9 10 10 12 11 10 10 10 10 10 11 12 12 10 11 14 16 17 18 20 19 18 17 17 17 18 18 17 17 16 14 14 14 13 13 13 13 13 13 13 13 12 12 12 11 11 9 8 8 9 9 9 9 10 10 10 10 11 10 10 10 10 10 10 9 9 9 9 8 8 9 9 9 10 10 10 9 9 9 8 9 9 10 10 9 9 9 9 8 7
3 7 7 7 10 11 10 10 10 11 13 11 10 10 10 11 11 11 14 14 13 15 16 17 18 19 19 16 15 15 15 15 15 16 15 15 16 14 14 13 12 12 12 12 13 13 13 14 13 12 12 11 11 11 10 9 9 10 10 10 11 10 10 10 10 10 9 10 10 10 10 9 9 9 9 9 9 9 9 9 10 11 11 10 9 9 9 9 9 10 10 10 10 10 10 9 8
6 9 8 9 11 12 11 10 11 14 13 11 11 11 12 13 12 12 14 14 14 15 16 17 17 17 16 14 14 13 13 14 14 14 13 13 14 14 13 12 11 12 12 12 12 12 13 14 14 13 12 12 11 11 11 11 10 10 11 11 11 11 11 11 10 10 10 9 10 10 10 10 10 9 9 9 9 9 10 10 10 11 11 11 10 10 10 9 9 10 11 11 11 10 10 9 8
8 10 10 10 12 12 11 11 13 13 10 10 13 14 14 13 12 12 12 13 14 15 16 16 15 15 14 13 13 12 11 13 13 13 13 12 13 13 12 12 12 12 12 12 12 12 12 13 14 14 13 12 12 12 12 11 11 11 11 12 11 11 11 11 11 11 10 9 9 10 10 11 11 10 10 10 10 10 10 11 11 11 12 12 12 11 10 10 10 10 10 11 12 11 11 10 9
9 11 12 12 13 12 11 12 13 13 11 11 13 14 13 10 8 8 10 13 14 15 15 15 14 13 13 12 12 11 11 12 13 13 12 12 12 13 12 12 12 12 12 12 12 11 12 13 14 14 14 13 13 12 12 12 12 12 12 12 11 11 11 12 12 12 10 10 9 9 11 12 12 12 12 11 11 11 11 12 12 11 12 12 12 12 11 10 10 10 10 11 12 12 12 12 11
12 13 14 12 13 11 11 12 12 11 11 11 13 14 12 8 8 10 11 11 13 15 15 14 13 12 12 12 11 10 11 12 12 12 12 12 12 12 13 12 11 11 11 12 11 10 11 12 12 13 14 14 14 13 13 13 13 12 12 11 11 10 11 11 12 12 11 10 10 11 12 13 14 13 13 13 12 13 13 13 12 12 13 12 12 12 12 11 11 10 10 11 12 13 13 13 12
13 13 12 12 12 11 11 11 11 10 10 11 11 11 11 9 11 12 11 10 12 14 13 13 12 11 11 11 9 9 10 11 11 11 11 11 11 11 12 11 11 10 10 10 10 10 10 11 11 12 13 14 15 14 13 13 12 12 11 10 10 10 11 11 12 11 11 11 11 12 14 15 15 14 15 16 15 14 14 14 14 14 14 13 12 12 12 12 12 12 11 11 12 13 14 14 14
13 11 10 10 9 9 10 10 10 10 11 9 5 4 8 10 12 12 11 10 11 13 13 12 11 10 10 9 9 8 9 11 11 10 10 10 9 9 9 9 9 8 7 8 9 9 9 9 9 10 12 14 15 14 13 13 12 11 10 10 10 10 11 11 12 12 12 11 11 13 15 16 17 17 18 18 17 17 17 16 17 17 16 15 13 13 13 13 12 13 13 12 12 13 14 15 15
10 9 8 8 6 8 10 10 10 11 9 5 4 1 7 9 12 12 11 11 11 11 12 11 11 10 10 9 9 9 9 10 10 10 10 9 8 8 8 8 8 7 6 7 8 8 8 7 7 9 11 12 13 13 13 13 12 11 10 10 10 10 10 11 12 12 12 12 12 12 14 17 18 18 19 18 18 18 18 18 20 19 17 15 14 13 13 13 13 14 13 13 13 13 14 15 15
8 8 8 6 4 9 11 10 10 8 8 6 5 2 7 9 12 12 10 10 10 10 11 11 11 11 10 9 9 8 9 10 10 9 9 9 8 7 7 7 7 7 6 5 6 7 7 7 7 8 9 11 12 13 13 13 12 11 11 10 10 10 10 11 11 12 12 13 13 12 13 16 19 19 19 19 20 19 18 19 20 18 16 15 14 14 14 14 15 18 17 15 15 16 16 16 15
8 8 7 8 6 8 9 10 10 6 6 6 4 2 6 9 12 12 11 10 9 9 10 11 10 10 10 8 8 8 8 9 9 10 9 8 7 6 6 6 6 6 6 6 6 7 7 7 7 7 8 9 10 11 11 11 12 12 11 11 11 10 11 11 11 12 13 13 13 13 13 15 19 21 21 21 22 23 21 19 19 20 18 17 16 16 17 17 18 20 21 20 19 19 19 19 18
8 8 7 10 9 7 8 10 11 8 6 6 4 3 6 11 12 12 12 11 9 8 9 11 9 9 9 7 8 8 8 8 8 9 10 8 8 7 6 6 7 7 7 7 7 7 7 7 7 7 7 8 8 9 9 10 10 10 10 10 10 11 11 12 12 12 13 14 14 14 14 15 17 20 22 24 25 26 25 21 20 21 20 20 19 19 19 20 21 22 24 25 22 22 21 22 21
10 8 7 9 8 8 8 8 10 12 8 6 4 4 8 12 12 11 11 11 9 8 8 9 9 9 9 8 7 8 8 8 8 9 10 9 8 8 8 8 8 8 8 8 8 8 7 7 7 7 7 7 7 8 8 8 9 9 9 9 9 11 11 12 12 13 13 14 15 16 16 16 17 18 19 22 24 23 23 22 20 20 21 22 22 21 20 19 21 22 23 25 24 23 23 23 24
12 11 9 9 9 8 8 7 9 12 9 7 6 6 10 12 12 11 11 11 9 8 7 7 8 9 8 8 7 7 8 7 8 8 9 9 9 9 9 8 9 9 8 8 9 9 8 8 7 7 7 7 7 7 7 7 8 8 8 8 9 10 11 12 12 13 13 14 15 15 15 15 15 14 14 17 20 20 20 19 18 18 20 23 22 22 21 19 20 20 21 21 22 24 23 22 25
12 12 9 9 9 8 9 7 8 12 9 7 6 6 10 12 11 12 11 10 10 9 8 7 7 8 8 8 8 8 8 6 8 8 8 9 9 9 9 8 8 9 9 9 9 9 8 7 7 6 6 6 7 7 7 7 7 7 7 7 8 9 11 11 12 12 12 12 12 12 13 12 12 11 10 12 15 16 18 19 20 20 20 22 23 23 21 18 18 19 19 18 20 23 24 24 25
10 10 8 8 8 6 8 8 8 11 8 6 7 6 9 11 10 11 10 10 11 10 9 8 8 8 7 8 8 8 7 6 7 8 8 9 9 9 9 8 8 9 9 9 9 8 7 6 5 5 5 6 7 7 7 6 5 6 6 7 7 8 9 9 9 9 9 9 9 10 11 11 12 12 11 11 11 12 15 16 18 20 20 20 21 21 20 17 17 17 18 18 17 20 23 23 22
9 8 8 8 6 5 7 8 8 9 7 5 9 8 8 10 9 10 11 10 9 9 9 8 8 8 7 7 7 7 7 7 7 8 9 9 9 9 9 8 8 8 8 8 7 6 5 5 5 5 5 5 6 6 6 5 4 4 5 6 7 8 8 8 8 9 10 10 11 11 11 12 12 12 12 12 12 12 14 15 15 16 16 16 17 17 17 17 18 17 18 19 18 18 21 21 20
8 7 8 7 8 7 6 8 9 9 6 4 8 9 6 9 8 8 10 9 7 7 8 7 7 7 7 7 7 7 8 7 7 8 8 9 9 9 9 8 8 8 7 7 6 6 5 5 5 4 4 4 4 4 4 3 4 4 4 5 6 7 8 8 9 9 10 11 11 12 11 11 11 12 13 14 14 15 15 16 15 14 14 15 15 15 15 15 15 16 18 20 20 19 20 19 19
9 8 8 7 9 12 8 8 10 8 6 5 8 8 5 8 10 9 9 8 8 9 9 8 8 8 7 6 6 7 8 8 8 8 8 9 10 10 9 9 9 8 8 7 7 7 6 6 5 5 4 3 3 2 2 2 3 3 4 5 5 6 7 8 8 9 10 10 11 11 10 10 11 12 13 14 15 16 16 17 15 14 14 13 14 15 14 13 13 15 18 20 22 21 20 20 18
8 10 13 11 8 11 9 12 12 7 7 8 10 7 5 9 12 11 10 10 10 10 11 11 10 9 9 8 8 8 8 8 8 9 9 10 11 11 10 10 9 9 8 7 8 8 8 8 7 6 6 5 4 4 3 2 2 3 3 5 5 6 7 7 7 9 10 10 11 12 11 11 11 12 12 13 14 15 16 16 15 15 14 13 13 14 14 14 15 16 17 20 22 22 21 20 18
6 7 12 12 9 9 11 15 12 7 6 9 12 8 4 7 11 13 13 13 13 12 12 13 11 10 10 10 9 8 9 8 8 9 10 11 12 12 11 11 10 10 9 9 9 10 10 9 9 8 7 6 6 5 4 3 3 3 3 4 5 6 7 7 8 9 9 9 10 11 11 11 11 12 12 13 14 14 15 15 15 16 15 13 12 13 14 14 15 16 17 18 19 21 22 20 20
1 3 6 9 8 10 13 14 11 6 3 7 11 8 5 4 7 12 15 14 15 14 14 14 13 13 13 12 11 10 10 9 9 9 10 11 12 13 12 12 11 10 11 11 11 11 11 11 10 9 8 7 7 6 5 4 3 3 3 3 4 5 6 7 8 8 8 8 9 10 11 11 11 12 12 13 14 14 14 14 13 13 13 12 11 12 13 12 13 15 15 16 16 18 21 21 22
2 5 5 6 7 10 11 11 8 4 4 6 8 7 6 6 4 9 14 14 15 17 17 17 16 15 14 13 13 12 11 10 10 10 10 12 13 13 13 13 12 12 12 12 11 11 11 11 10 10 8 7 7 7 6 5 4 3 2 2 3 4 5 6 7 7 7 8 9 10 10 11 11 11 12 12 13 13 12 11 11 10 11 11 11 12 12 11 12 13 13 14 15 17 20 20 22
4 6 8 7 5 6 6 7 4 3 6 8 9 9 8 7 4 7 10 12 14 16 17 17 17 16 15 14 14 13 12 10 11 11 12 13 13 13 13 13 13 13 12 12 12 12 12 11 10 10 9 7 7 7 6 6 5 3 3 2 3 4 4 5 6 6 7 7 8 9 10 10 10 10 10 11 12 12 10 10 9 9 9 10 10 11 11 11 11 12 13 14 15 17 19 20 21
10 9 8 7 5 4 3 3 2 4 8 8 9 11 9 8 5 6 8 11 13 13 13 15 17 17 16 15 14 14 12 11 11 11 12 14 14 13 13 14 14 13 13 13 13 13 12 11 11 10 9 7 7 7 7 6 5 4 3 2 3 4 5 5 6 7 7 8 8 9 10 10 11 11 10 10 10 10 9 9 9 8 9 9 10 10 11 11 11 12 12 13 14 14 16 18 19
10 7 7 6 4 4 4 3 4 6 7 5 4 8 10 9 6 4 5 9 11 10 11 14 18 18 16 15 14 14 13 12 12 11 12 13 13 14 15 15 15 14 15 15 14 13 12 11 11 10 9 8 8 7 6 5 4 3 1 2 3 4 5 6 7 8 8 8 9 10 10 11 11 11 11 11 11 11 10 9 8 8 8 9 9 10 10 11 11 12 11 12 13 13 14 15 16
8 6 8 6 4 5 6 5 5 7 4 3 3 6 9 9 9 9 7 7 9 7 8 11 15 18 18 16 15 14 13 13 13 12 12 12 13 15 16 16 16 16 16 15 14 13 12 11 11 10 9 9 8 6 5 3 2 1 1 2 3 4 5 6 7 7 7 7 8 9 10 10 10 10 11 11 11 11 11 10 9 8 8 9 9 9 10 10 10 11 11 12 13 14 15 15 16
9 8 8 7 5 6 7 6 6 7 4 5 4 4 6 8 8 9 8 6 6 7 7 8 10 15 17 17 16 15 14 14 13 12 12 12 13 16 17 17 17 16 16 15 14 13 12 11 11 10 10 9 7 6 4 3 2 2 1 2 3 3 4 5 6 6 7 7 8 8 9 9 9 10 10 11 11 11 11 10 9 9 8 8 8 8 9 9 10 10 12 13 14 15 16 16 16
10 9 8 8 6 6 7 5 6 8 4 6 5 4 6 6 1 2 0 1 1 5 6 6 6 10 14 16 17 16 15 14 12 13 13 13 16 17 17 17 17 16 16 15 14 14 12 12 12 11 11 10 8 6 4 4 3 2 2 2 3 3 4 5 6 6 6 7 8 9 9 8 9 9 10 11 11 11 11 10 9 9 8 8 7 7 8 8 9 10 11 11 12 14 15 16 17
8 6 8 7 6 6 4 3 4 5 3 4 5 4 5 4 2 5 4 3 4 5 6 8 8 9 11 14 16 16 15 14 13 13 13 15 17 18 17 18 17 16 16 16 15 14 13 12 12 12 10 9 7 6 5 4 4 3 3 3 3 4 5 5 6 6 6 7 9 9 9 9 8 9 10 10 11 11 11 10 9 9 8 8 7 7 7 8 8 10 11 11 12 13 14 15 17
6 6 7 2 2 4 4 2 0 4 7 4 4 6 6 4 4 6 6 5 6 7 8 10 10 10 12 12 14 15 15 14 14 13 13 15 18 18 17 18 17 17 17 16 15 14 13 12 12 11 10 8 7 6 6 5 5 4 4 4 4 5 5 6 6 7 7 8 9 10 10 10 9 9 9 10 10 11 11 11 10 8 8 8 9 9 8 8 9 10 11 11 12 14 14 15 17
4 7 7 5 2 3 4 4 3 5 8 3 4 8 7 5 4 4 7 7 8 9 9 10 10 12 12 12 13 15 15 15 14 14 14 15 17 18 18 17 17 17 16 15 14 13 12 12 11 10 10 8 8 7 7 6 5 5 5 5 5 5 6 6 7 7 8 8 9 10 10 10 10 10 10 10 11 11 11 11 10 9 9 9 9 10 9 9 9 10 11 12 13 13 14 15 17
4 3 5 6 5 5 5 5 5 5 7 4 5 6 7 6 3 2 6 6 5 7 8 9 12 13 13 12 14 15 16 15 14 14 13 14 17 18 18 17 17 17 16 15 14 13 12 12 11 10 10 9 8 8 7 7 6 6 6 6 6 6 6 7 7 7 8 8 9 10 10 10 9 9 10 10 11 11 11 11 10 10 10 10 10 10 10 10 10 11 11 12 12 13 14 16 17
4 3 5 6 5 3 4 5 5 5 6 6 3 4 5 5 1 2 1 3 4 5 7 9 11 13 12 12 13 15 15 14 14 14 13 14 17 19 18 18 17 16 15 14 14 14 13 12 11 11 10 9 9 9 8 7 7 6 6 6 6 6 6 7 7 7 7 8 8 9 9 9 9 10 10 10 11 11 11 11 11 11 11 11 10 10 10 10 10 11 11 12 12 12 14 15 17
9 7 7 8 4 2 3 4 4 5 6 5 4 5 3 3 4 1 2 2 3 3 5 7 8 10 11 12 12 13 14 15 14 14 14 14 17 19 19 18 16 16 15 14 14 13 13 12 11 12 12 11 10 9 8 8 7 6 7 7 7 7 7 7 7 7 8 8 8 8 8 8 9 10 11 11 11 12 12 12 12 12 11 11 10 10 10 10 10 11 11 12 12 12 13 15 17
10 10 9 10 7 5 5 5 4 3 5 4 4 6 3 5 5 2 1 1 2 2 4 5 6 8 10 11 12 13 14 14 15 15 15 15 17 19 19 18 17 16 16 15 13 13 12 11 11 11 11 10 10 9 8 8 7 7 7 7 7 7 7 7 8 8 8 8 8 8 8 9 10 10 11 11 12 12 12 12 12 12 11 10 11 10 9 9 10 11 12 12 12 13 14 16 18
Wind_Direction
33 345 276 272 276 285 266 249 99 85 81 80 79 80 78 87 98 99 101 107 96 84 89 91 90 75 76 82 99 88 37 36 38 59 100 115 128 118 118 125 122 122 121 125 128 126 123 119 117 115 116 119 123 125 127 126 126 128 128 129 129 128 127 127 127 126 126 126 126 127 127 130 131 129 127 122 119 117 118 121 124 125 124 124 124 122 122 121 116 108 106 105 103 101 100 99 100
272 256 263 283 272 275 262 227 91 87 86 80 77 82 97 99 92 91 90 92 91 98 101 93 92 86 85 83 102 105 53 39 61 79 96 115 116 111 120 124 124 123 122 125 124 123 121 122 125 123 122 126 127 128 130 128 128 129 130 130 129 129 128 128 128 128 128 129 130 131 131 132 133 131 128 124 122 121 123 125 126 125 122 123 122 120 119 117 114 110 108 106 103 101 101 101 101
241 265 275 293 263 251 271 194 86 85 85 83 83 85 96 94 88 87 86 91 100 107 105 101 94 81 96 89 72 85 81 68 89 96 108 120 116 117 123 124 126 124 125 128 128 126 126 133 135 130 126 129 128 128 130 129 128 129 130 130 129 129 128 129 131 132 132 134 134 134 134 133 132 129 127 125 125 124 125 125 123 123 120 121 120 118 116 113 113 111 108 105 101 98 97 96 98
218 266 286 293 259 222 301 80 78 80 84 85 87 85 88 86 89 89 92 99 107 112 106 103 86 43 70 85 83 86 92 86 91 104 115 120 118 122 125 125 127 127 132 135 135 133 134 136 132 130 128 129 128 127 130 129 129 130 130 130 130 129 129 132 134 135 136 137 138 137 136 134 132 129 125 123 124 125 124 123 120 119 118 117 116 113 110 108 106 104 103 100 96 93 92 91 92
205 259 279 284 286 66 49 76 72 69 75 87 91 88 91 90 93 95 100 106 110 109 102 103 89 75 68 65 81 92 98 99 95 104 109 113 120 125 127 127 129 130 134 136 138 135 137 135 128 128 129 132 132 130 132 131 132 133 132 131 130 130 132 134 135 137 137 138 138 137 135 133 132 131 127 123 122 123 122 121 118 114 113 111 110 109 107 104 100 97 96 94 91 88 86 85 89
216 251 252 261 286 318 81 84 79 70 62 80 94 92 97 98 101 104 105 103 98 92 96 100 99 103 83 58 65 76 96 110 108 108 109 118 125 127 129 130 129 129 131 134 134 131 135 136 129 127 133 139 137 134 133 132 134 134 132 131 129 131 134 135 137 137 136 136 136 137 135 131 130 130 128 125 125 125 123 121 118 114 111 108 102 102 101 98 93 92 91 86 81 79 76 74 78
259 260 230 237 244 217 91 82 81 77 63 74 94 99 101 107 111 114 114 108 99 92 92 100 108 107 98 92 77 66 83 105 115 115 117 124 127 129 130 129 126 126 128 129 129 132 136 134 129 126 132 138 139 136 133 133 135 133 132 131 130 133 135 135 136 135 135 135 135 135 134 131 127 127 126 125 126 125 123 121 118 114 111 106 95 89 86 83 79 77 77 73 64 59 56 55 51
264 266 239 225 121 107 85 80 79 80 79 80 89 100 108 116 122 123 117 110 105 105 106 112 115 99 96 109 89 82 95 102 113 118 123 127 129 130 130 129 126 125 126 127 128 134 138 133 130 129 132 136 139 137 133 134 135 134 133 133 133 133 134 134 134 136 137 136 135 134 132 130 127 126 127 125 124 123 123 121 120 116 112 107 98 92 82 76 71 68 64 57 47 40 30 11 5
250 251 248 191 98 94 91 88 88 86 91 91 92 105 114 120 124 121 111 104 107 114 113 111 113 104 101 97 94 101 105 107 117 123 128 130 132 132 132 132 128 126 126 127 128 133 139 137 135 133 134 137 139 137 134 134 134 135 134 133 134 134 135 135 138 140 140 138 137 136 135 132 131 131 132 132 128 126 126 123 122 122 119 115 110 105 92 83 78 79 82 74 62 40 13 347 342
246 233 271 132 101 97 97 93 96 98 98 97 101 111 118 117 116 116 112 110 113 114 100 91 103 115 111 101 101 108 114 123 127 129 134 134 135 135 134 133 129 130 129 129 131 134 139 142 141 138 139 139 137 136 135 135 136 136 135 135 135 138 139 140 143 143 143 142 141 141 140 138 139 140 141 142 139 139 138 135 134 133 130 127 125 120 112 111 115 151 184 174 148 125 19 332 334
241 158 261 137 104 94 94 98 100 102 104 104 105 109 111 108 112 112 110 111 111 112 113 109 107 112 110 101 98 109 122 133 134 134 138 139 139 138 137 135 133 132 131 132 133 135 139 142 142 140 142 140 136 135 136 138 138 138 139 140 142 144 145 146 147 147 148 147 147 147 146 147 148 151 152 152 151 150 149 147 148 148 145 141 134 127 121 118 151 204 224 225 186 170 185 212 260
267 129 202 130 90 90 97 103 104 105 111 111 111 111 108 112 116 109 107 115 118 121 127 123 117 118 111 103 107 125 133 139 137 137 140 144 141 140 139 136 135 132 132 134 133 136 140 143 143 143 145 145 142 140 142 144 144 144 145 147 149 150 150 152 152 153 154 153 154 154 154 155 156 159 160 160 159 154 152 153 157 159 154 144 136 129 117 133 221 243 260 265 249 219 213 230 251
295 111 196 110 85 104 103 102 111 117 118 112 115 119 118 118 111 108 116 120 115 118 117 122 134 123 104 107 122 136 141 143 141 140 142 145 143 141 140 137 136 134 134 135 136 139 142 146 147 147 149 149 149 147 149 151 151 152 151 152 154 156 157 158 160 161 162 162 162 163 164 164 167 169 168 170 170 167 167 171 177 176 158 146 163 177 198 245 254 260 263 262 262 260 262 265 274
323 332 289 121 123 113 103 112 126 123 114 112 120 125 118 98 102 112 121 114 90 95 105 120 137 118 110 123 135 147 147 146 146 144 144 143 144 144 141 140 138 136 136 138 140 142 145 147 148 150 151 152 152 152 154 157 158 157 157 159 160 163 166 167 169 170 171 172 173 174 175 177 178 178 180 184 185 188 196 200 201 184 163 182 212 223 229 250 262 265 268 267 264 264 266 269 277
313 319 275 138 132 122 102 111 117 107 112 125 128 122 107 91 104 101 90 99 97 103 112 122 138 131 143 154 151 151 147 148 149 146 145 143 145 145 142 143 142 141 140 142 144 147 150 148 148 152 155 155 156 156 159 164 164 163 165 166 169 172 175 178 179 179 181 181 184 186 188 190 189 192 197 201 202 209 215 217 220 189 178 225 236 241 247 258 266 266 271 271 269 273 273 270 275
294 296 246 139 124 124 109 114 113 106 117 129 130 123 112 97 90 73 79 113 116 119 130 115 146 171 151 154 146 144 146 149 149 146 145 143 145 146 145 146 147 148 148 150 152 152 151 152 153 154 160 160 159 161 163 168 170 170 172 175 177 180 184 187 188 189 191 193 196 198 200 201 199 205 212 214 215 221 222 220 229 209 211 243 248 253 261 267 270 272 275 274 276 283 281 275 275
265 266 215 120 106 114 120 144 110 105 118 127 134 128 117 107 92 85 102 121 119 112 94 82 97 122 128 134 135 140 145 148 149 147 146 146 149 151 151 153 154 155 156 158 159 155 152 156 160 159 164 164 160 163 162 166 177 177 178 185 187 189 193 193 196 198 201 205 207 208 211 208 206 212 214 217 222 228 233 231 231 227 237 251 252 256 267 274 276 278 280 283 285 285 284 282 282
237 243 166 97 88 101 114 118 91 110 125 127 136 131 121 122 116 119 118 117 113 102 99 95 88 92 106 121 131 140 146 150 153 151 151 154 155 156 158 161 162 162 162 164 165 163 160 162 167 165 165 166 162 161 160 166 182 181 183 195 197 198 200 201 203 205 207 211 212 213 215 215 215 216 212 214 221 226 242 252 246 236 244 255 258 258 265 272 277 280 283 287 287 284 282 279 281
241 259 103 78 83 87 84 101 90 103 119 122 132 125 117 123 128 148 134 119 122 107 110 113 103 105 114 124 134 141 148 153 157 157 157 159 161 162 162 165 168 168 167 167 168 171 172 169 171 167 165 170 167 165 167 170 180 183 188 198 201 203 205 208 210 210 212 215 216 215 218 222 223 225 223 222 226 229 243 259 259 249 248 258 265 265 267 270 273 278 283 285 283 281 275 265 268
235 270 98 86 93 91 68 83 83 90 113 121 120 111 106 115 132 158 139 124 124 115 122 127 122 127 129 133 139 144 151 156 160 162 161 162 164 166 166 167 171 174 172 171 170 175 180 177 174 167 165 172 169 171 179 179 183 188 195 200 202 205 207 210 214 216 218 219 218 220 223 226 229 232 236 237 240 242 249 262 267 261 253 260 269 270 269 271 271 274 278 279 276 268 257 251 253
231 333 81 94 106 97 73 78 92 100 112 116 115 113 104 100 95 112 149 137 113 108 124 136 136 137 137 140 144 149 154 157 163 166 165 166 167 169 170 171 174 174 174 175 175 178 182 181 179 172 170 175 174 179 187 188 190 196 204 207 208 210 211 213 217 219 222 224 223 226 230 232 237 240 242 244 245 246 250 262 268 264 254 255 268 267 261 268 270 269 270 268 261 249 244 247 248
90 54 72 95 108 96 87 88 98 108 113 115 116 112 104 96 77 60 64 80 78 86 113 131 137 139 142 145 148 152 156 160 166 168 169 169 170 172 169 172 176 173 176 180 180 181 184 184 182 180 180 181 184 188 194 197 197 204 213 215 218 220 219 220 222 224 226 228 229 234 239 241 245 248 248 246 245 247 251 259 266 269 263 253 259 260 253 262 267 265 263 260 257 252 251 251 247
126 88 82 93 100 98 100 104 112 119 114 111 108 107 110 102 81 65 63 69 74 86 110 126 133 138 143 145 149 154 159 163 166 170 172 171 173 175 171 175 177 176 181 184 182 181 184 187 186 185 186 187 192 193 197 205 208 214 219 222 227 230 229 229 231 231 230 230 233 238 244 248 250 253 255 252 252 253 255 260 265 269 270 263 258 258 256 258 264 265 263 260 261 261 259 255 252
135 109 99 95 99 103 107 114 123 114 104 105 108 112 113 103 90 79 77 81 88 98 113 124 129 139 143 147 153 155 157 162 165 168 173 175 177 178 176 178 178 181 187 187 185 183 185 188 189 189 189 190 195 198 201 208 213 218 222 227 233 236 238 238 239 240 237 235 237 238 243 250 253 254 255 255 254 256 259 260 264 267 269 269 263 260 260 260 262 266 267 265 264 263 263 261 256
121 118 111 106 104 109 114 121 120 108 104 108 109 103 97 98 94 85 86 92 99 107 119 125 131 140 144 149 152 151 156 160 161 164 170 175 177 178 179 180 182 187 191 191 189 188 187 188 191 193 192 192 196 202 207 210 216 219 222 227 232 236 239 241 244 245 244 242 240 240 244 248 252 256 255 253 251 252 257 257 259 264 266 268 268 264 261 260 262 265 269 270 267 264 264 264 259
119 128 123 119 113 116 123 126 119 110 108 111 111 105 102 106 99 86 90 101 109 115 121 128 136 141 145 150 149 152 159 159 160 163 167 171 174 178 180 181 185 192 195 193 192 193 192 191 195 197 197 197 199 205 210 215 221 222 223 227 230 235 240 244 246 246 246 245 244 242 243 248 252 256 257 255 252 250 252 254 254 257 261 262 264 263 262 261 262 263 267 270 270 267 266 265 263
126 131 122 120 118 122 127 124 118 110 110 115 114 109 112 126 119 102 104 113 119 122 125 131 137 139 143 145 146 154 160 161 162 163 164 167 172 177 181 183 185 191 194 194 196 195 195 197 199 200 201 202 204 208 211 216 224 226 227 229 232 236 241 244 245 247 247 247 247 244 246 251 253 257 261 261 260 258 256 256 256 255 256 256 257 257 258 259 261 263 262 263 266 266 267 266 264
132 128 119 121 121 125 128 125 120 115 114 118 117 112 112 118 113 115 123 128 127 125 129 134 134 135 139 141 144 155 161 161 164 165 167 168 171 176 180 183 184 186 190 195 197 195 196 199 201 203 205 207 210 212 215 219 224 229 231 233 236 239 240 242 244 246 248 252 251 248 251 255 258 258 261 263 265 266 265 262 261 259 256 255 253 251 252 254 257 260 257 256 259 260 262 263 262
140 136 126 127 128 129 135 135 129 128 127 128 131 120 106 101 108 122 134 136 131 129 133 135 133 134 139 143 146 157 162 162 166 168 169 167 167 171 173 176 178 179 184 190 194 196 197 198 200 205 207 210 214 217 221 225 227 231 234 236 241 242 242 244 246 248 251 256 253 253 257 260 262 261 262 267 268 268 268 267 264 261 259 256 253 250 250 252 253 255 254 253 255 255 257 259 259
149 149 140 139 144 139 145 147 139 140 136 140 170 116 97 108 120 131 143 145 139 135 135 136 136 140 145 149 153 159 163 165 169 167 165 165 162 163 165 166 170 173 174 180 190 196 197 197 199 204 208 212 217 221 225 230 232 234 235 239 242 243 245 247 249 253 255 256 254 255 260 263 264 263 267 270 270 270 269 267 264 262 260 256 253 250 247 249 251 253 254 254 253 252 254 256 257
154 158 160 163 165 150 158 161 155 155 150 175 250 94 107 127 133 139 151 154 150 140 138 140 139 143 149 154 157 158 164 170 172 169 167 166 160 158 161 163 171 177 172 173 186 193 195 199 202 206 210 214 218 222 226 232 237 239 240 242 243 244 247 249 252 255 256 257 255 254 258 264 267 267 269 268 267 270 268 266 266 265 263 257 252 247 245 250 251 251 252 255 257 255 254 253 253
162 175 173 180 180 150 161 173 175 169 158 205 268 79 114 136 142 146 154 162 162 145 141 146 145 147 150 155 160 157 161 170 175 176 173 171 166 161 163 168 178 184 181 177 183 189 193 196 202 207 211 216 220 223 228 235 240 243 244 246 248 251 251 253 255 255 257 257 255 254 252 260 269 272 271 269 269 269 267 269 269 265 262 261 257 247 243 247 249 249 248 247 253 257 259 254 248
181 202 171 175 192 157 164 181 190 187 158 190 240 115 123 140 148 150 156 169 172 154 144 150 152 152 153 157 162 161 162 169 175 177 175 176 176 172 171 172 179 186 189 189 187 190 195 194 200 207 211 218 222 225 230 237 242 245 248 252 254 257 258 258 259 258 259 259 260 260 255 261 271 276 277 273 273 274 271 266 265 263 261 260 258 252 248 249 249 251 249 245 243 246 255 258 252
189 213 174 178 191 166 168 180 186 194 189 190 201 163 125 135 151 155 158 169 177 167 152 153 156 156 161 166 167 167 170 172 176 178 179 181 180 181 182 179 182 188 190 193 194 195 198 199 203 208 214 219 220 222 229 237 243 247 251 255 258 261 262 263 264 263 264 264 264 264 262 265 267 272 279 277 273 275 273 267 266 266 261 254 254 255 254 252 251 252 251 248 240 235 241 253 256
190 199 181 181 187 181 179 177 180 188 198 198 192 160 131 138 152 158 162 169 179 179 164 159 160 162 166 173 177 175 177 178 177 179 183 185 184 185 189 189 189 192 194 195 196 198 200 204 206 210 217 223 224 222 225 235 243 246 249 252 258 261 263 265 266 264 264 263 263 263 264 265 262 264 272 276 275 274 272 271 269 264 258 256 255 256 255 250 249 249 249 247 241 235 234 242 254
194 194 189 184 187 193 184 171 175 184 196 201 196 168 148 151 154 159 166 167 178 184 178 171 166 168 171 178 184 180 186 184 171 173 178 182 187 189 191 192 193 193 194 193 194 199 200 202 208 213 221 229 233 231 228 235 243 247 250 254 263 268 269 269 268 266 265 265 266 267 269 270 270 267 260 263 271 274 273 273 271 265 265 266 260 255 255 248 243 244 245 243 238 239 237 238 249
199 198 198 194 194 190 177 170 172 185 202 200 196 179 158 158 156 161 167 168 180 187 186 188 178 176 175 179 182 179 188 177 157 167 177 181 187 188 191 193 193 192 190 192 195 198 198 201 210 219 229 237 242 245 242 242 246 255 262 262 269 276 274 271 272 272 270 270 270 270 272 271 271 270 258 251 259 269 274 276 275 270 266 264 257 253 255 251 243 244 247 243 237 240 241 240 244
202 203 205 206 207 182 163 172 175 188 209 187 184 196 165 161 161 161 168 176 182 185 188 195 191 185 180 182 184 177 178 165 159 174 181 187 191 188 191 194 194 193 191 194 196 194 192 198 215 231 242 246 249 252 253 255 255 262 271 271 275 279 275 273 276 280 281 281 281 278 277 278 276 276 273 263 258 259 263 267 270 267 260 256 254 253 255 254 249 247 248 248 241 238 240 242 240
199 201 206 212 196 145 145 170 174 183 215 187 180 202 170 159 167 166 177 186 182 186 191 196 195 193 189 188 188 180 175 172 178 185 186 190 192 188 192 196 197 197 192 192 192 187 185 198 218 231 238 242 245 247 251 257 259 261 269 274 281 285 284 284 284 288 288 288 289 288 287 287 287 285 282 278 270 264 262 261 264 267 267 264 263 263 262 260 255 251 250 250 248 242 243 245 236
209 206 209 213 180 173 183 175 173 185 220 216 183 198 175 161 176 179 186 190 181 186 195 198 201 204 201 195 191 186 184 183 186 189 188 187 187 189 194 196 194 191 186 185 185 184 188 199 205 205 213 224 230 238 245 255 263 271 276 281 288 291 294 294 291 291 290 292 291 290 293 295 295 293 290 288 282 278 277 275 273 273 275 275 276 276 272 267 261 258 254 248 247 246 247 247 237
216 219 226 228 186 204 219 163 161 181 205 215 190 198 195 181 191 190 187 192 189 189 196 202 205 206 208 202 193 191 193 190 188 190 186 182 183 186 189 189 188 185 182 182 179 175 175 173 170 168 172 179 182 191 204 235 266 279 287 292 294 293 297 298 298 301 303 304 302 302 307 307 303 300 296 293 289 287 285 282 280 275 272 274 278 279 277 274 270 266 260 250 247 246 248 252 244
204 214 230 245 223 220 205 155 160 188 201 201 197 216 217 190 197 195 184 190 196 193 198 205 205 203 207 209 203 196 195 193 191 190 183 180 180 179 181 184 185 184 179 174 168 164 162 156 154 155 152 152 153 160 174 194 239 267 281 290 298 299 300 301 303 309 311 310 309 312 316 315 312 310 306 303 299 295 291 287 283 278 274 272 275 279 279 278 276 272 268 263 260 256 251 251 247
204 195 215 236 246 224 184 167 183 216 210 188 198 230 236 184 200 202 190 192 198 198 203 207 205 203 207 210 207 199 194 191 189 189 184 179 177 176 179 181 184 183 172 161 157 155 155 154 154 156 153 154 159 166 176 185 210 242 264 279 294 299 299 302 304 305 306 306 308 311 314 316 316 315 313 311 308 304 299 294 287 282 280 277 277 280 279 277 276 275 275 273 270 264 254 246 243
218 98 185 206 222 206 186 189 206 217 179 171 196 226 249 226 212 198 192 194 198 201 207 210 206 204 206 208 205 200 196 191 184 184 183 178 176 176 176 178 181 176 163 158 157 156 158 159 159 160 158 160 166 172 177 183 198 219 243 264 281 286 290 297 299 299 299 303 307 311 315 316 317 317 314 313 313 310 304 298 293 290 288 287 284 280 278 277 274 276 280 279 272 264 258 252 249
52 73 136 165 198 197 191 203 206 187 188 198 199 211 244 246 200 180 192 200 206 207 207 208 207 204 204 206 204 199 195 192 186 184 182 177 175 175 174 173 172 165 160 162 161 160 163 164 164 163 163 165 170 175 175 178 184 193 219 254 274 278 286 294 297 299 301 305 308 311 315 315 316 316 314 315 318 318 313 308 306 303 297 293 287 282 281 279 275 274 277 277 273 267 264 259 254
109 115 118 120 160 180 190 214 207 189 224 228 203 201 242 252 192 174 197 206 213 214 210 208 205 204 203 204 203 197 193 192 190 186 182 179 176 175 172 168 165 162 163 164 163 165 167 168 169 167 166 169 173 178 175 173 175 180 204 242 272 282 286 290 296 300 304 309 311 314 317 315 315 314 313 315 319 323 324 320 319 313 304 297 291 288 287 284 280 277 274 272 271 269 268 263 259
139 138 127 124 134 150 184 220 212 216 231 233 206 200 233 262 227 186 198 216 221 218 213 208 204 203 202 202 201 196 191 190 191 187 182 180 177 172 168 165 164 164 165 166 168 170 170 171 173 171 171 176 180 180 176 174 178 183 201 239 272 293 299 298 305 311 316 321 320 321 323 319 317 316 315 315 318 325 326 320 319 315 310 305 300 299 297 295 292 287 282 276 272 269 267 266 266
159 159 156 150 137 164 187 180 199 230 232 221 199 203 222 250 258 218 198 216 227 228 218 208 204 203 199 199 200 195 190 188 188 187 180 177 173 170 169 167 166 167 168 171 173 173 175 177 177 177 180 184 184 181 178 179 185 191 212 288 303 313 315 312 315 319 323 326 324 322 321 319 317 316 317 319 320 325 325 319 316 314 310 306 304 304 301 299 298 294 286 280 279 275 268 267 268
187 185 180 186 177 185 204 196 205 233 223 144 159 212 226 245 260 263 254 225 220 226 227 216 207 203 197 195 196 192 190 189 187 187 182 177 174 173 174 172 171 172 173 174 176 177 179 181 183 187 189 188 186 182 183 190 202 224 280 317 318 316 315 311 310 313 317 317 316 314 314 316 316 314 317 320 321 321 320 317 314 311 305 301 301 301 300 297 295 292 285 280 282 281 275 268 263
200 194 193 208 199 198 219 214 219 240 211 130 149 205 243 257 251 254 263 249 218 208 212 222 215 207 200 193 191 190 190 190 187 186 185 182 180 177 176 175 176 177 176 176 179 181 182 185 190 194 191 189 186 183 191 207 218 244 291 310 314 308 303 303 303 305 309 309 308 308 309 311 312 314 316 318 319 317 316 315 311 308 303 297 296 297 299 295 291 291 287 283 280 279 277 271 266
201 202 206 219 220 220 231 230 236 242 196 134 151 192 244 259 191 133 256 350 207 207 202 205 212 212 204 194 191 190 189 189 186 186 187 185 181 178 176 177 178 177 178 180 182 184 185 188 193 195 190 186 186 188 200 217 226 245 279 294 299 292 292 297 297 297 299 300 303 302 301 303 306 311 313 315 316 314 314 314 308 305 301 298 299 299 300 298 294 294 290 284 282 280 276 272 270
193 209 218 227 240 231 243 304 288 280 269 175 179 216 245 255 130 143 161 148 164 199 203 199 202 204 200 197 195 191 187 186 185 186 187 182 179 179 176 177 178 178 179 182 183 186 190 192 194 196 192 187 190 199 210 221 231 246 262 272 277 277 285 291 292 295 299 298 299 298 296 297 298 303 308 311 312 311 312 313 308 305 302 302 304 301 301 302 299 297 294 290 289 289 284 277 273
169 204 217 212 332 260 241 256 313 290 274 228 185 234 240 235 226 187 183 206 202 201 208 205 202 197 196 199 198 193 187 184 185 186 185 179 178 179 178 178 179 179 180 183 184 187 193 194 194 195 192 191 198 207 217 223 231 244 254 261 268 274 283 290 295 300 305 303 300 298 296 294 294 299 306 308 309 308 308 309 308 305 302 303 306 305 304 304 302 300 299 299 299 297 293 287 281
191 208 188 129 53 273 251 247 211 229 253 236 193 243 248 232 236 174 174 220 225 211 213 211 202 197 199 200 197 194 186 181 183 186 184 179 177 180 182 181 181 180 180 181 183 188 194 197 197 198 199 201 207 212 218 224 230 244 255 257 264 274 282 290 296 299 304 307 307 306 302 298 298 301 304 306 307 307 306 306 306 304 303 303 305 307 307 306 309 309 305 302 302 301 298 292 288
261 250 162 168 218 211 202 239 248 239 257 259 203 230 255 239 229 143 173 219 242 215 208 211 207 201 201 198 192 191 185 180 182 186 184 179 178 181 183 184 183 179 178 179 184 191 195 196 198 203 207 209 211 214 221 226 231 243 253 256 262 270 278 286 291 293 298 304 307 311 309 304 303 302 302 303 306 308 309 307 305 303 307 307 305 307 308 309 310 309 308 306 305 305 302 298 295
243 263 190 207 247 235 192 219 254 264 272 278 226 208 238 224 164 61 201 249 270 221 198 210 214 205 201 196 190 188 186 182 182 185 184 180 180 182 184 186 184 178 177 182 188 195 197 195 197 205 210 211 213 217 223 229 235 242 248 253 257 262 270 280 282 282 288 296 304 310 311 308 306 304 304 302 303 307 307 307 307 306 309 312 311 310 309 309 308 307 307 308 308 308 306 303 302
196 214 204 199 207 239 229 220 245 270 274 281 270 253 246 118 105 94 276 273 263 226 207 216 217 208 202 195 190 189 186 184 184 185 184 182 182 184 185 187 184 178 180 186 192 197 198 197 200 207 211 213 217 221 225 231 236 242 248 250 252 257 266 273 274 274 279 286 293 300 305 306 305 305 306 304 304 305 302 301 302 303 306 310 311 310 308 306 305 305 306 307 309 310 307 307 307
202 203 207 205 195 203 228 219 203 233 265 273 277 278 289 98 121 177 197 220 228 224 225 220 210 205 199 193 191 189 187 187 184 185 185 182 183 185 185 185 183 180 184 188 192 195 197 199 207 213 215 220 226 224 223 231 238 244 250 250 249 254 263 270 272 273 275 281 286 292 300 304 306 307 307 305 305 305 300 297 295 295 297 302 307 307 306 304 302 303 307 310 311 310 309 309 308